Location: Unspecified
(0.0000°N, 0.0000°E)
Time: 13:21:14
(UTC+01:00)

NOSS 3-3 (A) - Visible Passes

Search period start: 26 February 2017 00:00
Search period end: 08 March 2017 00:00
Orbit: 910 x 1302 km, 63.4° (Epoch: 22 February)

Date Brightness Start Highest point End Pass type
(mag) Time Alt. Az. Time Alt. Az. Time Alt. Az.
26 Feb 6.0 21:53:57 10° SSW 21:55:27 18° SSW 21:55:27 18° SSW visible
27 Feb 4.9 21:09:28 10° S 21:12:58 34° S 21:12:58 34° S visible
28 Feb 4.8 20:25:43 10° S 20:30:37 27° ESE 20:30:37 27° ESE visible
28 Feb 6.3 22:16:38 10° WSW 22:18:08 16° WSW 22:18:08 16° WSW visible
01 Mar 5.5 19:43:26 10° SE 19:46:03 13° ESE 19:48:25 10° E visible
01 Mar 4.7 21:30:55 10° SW 21:35:57 45° W 21:35:57 45° W visible
02 Mar 3.7 20:46:01 10° SSW 20:52:03 85° ESE 20:53:57 46° NNE visible
03 Mar 4.2 20:01:47 10° S 20:07:27 42° ESE 20:12:09 14° NE visible
03 Mar 6.3 21:54:47 10° W 21:58:02 15° WNW 21:59:44 13° NW visible
04 Mar 5.5 21:08:10 10° SW 21:13:22 31° WNW 21:18:12 12° N visible
05 Mar 4.3 20:22:48 10° SSW 20:28:45 63° WNW 20:34:42 10° NNE visible
06 Mar 7.5 06:14:08 10° NE 06:15:30 10° ENE 06:16:53 10° ENE visible
06 Mar 3.9 19:38:11 10° SSW 19:44:10 65° ESE 19:50:07 10° NNE visible
07 Mar 6.2 20:45:52 10° WSW 20:50:06 20° WNW 20:54:23 10° NNW visible
